Terminal Aerodrome Forecast
Issued by NWS

Home | Current Version | Previous Version | Graphics & Text | Print | Product List | Glossary On
Versions: 1 2 3 4 5 6 7 8 9 10 11 12 13 14 15 16
113
FTUS43 KFGF 151005 AAC
TAFBJI
TAF AMD
KBJI 151005Z 1510/1606 30017KT P6SM OVC008
      TEMPO 1510/1512 30019G27KT
     FM151200 30012G20KT P6SM OVC008
     FM151500 30014G22KT P6SM OVC010
     FM160200 32010KT P6SM BKN015
     FM160400 32006KT P6SM BKN015=

USA.gov is the U.S. government's official web portal to all federal, state and local government web resources and services.